Voltar ao catálogo

FREGAT R/B

LostMEO
NORAD 38859·ROCKET BODY·🇷🇺 Russia

Lançado Oct 12, 2012 de Guiana Space Centre

Loading…

Próximas Passagens (próximas 24 horas)

TLE

ObsoletoSource: Space-Track

Época: Jul 31, 2026, 23:15 UTC

1 38859U 12055C   26212.96901288  .00000003  00000-0  00000-0 0  9995
2 38859  55.6985 107.0329 0004636 354.9278   5.1360  1.66707153 84027

Acompanhe FREGAT R/B em tempo real com AllMySat

Download on the App Store